Location: Unspecified
(51.5147°N, 7.4673°E)
Time: 12:56:59
(UTC+01:00)

Transit 4A - All Passes

Search period start: 16 February 2026 00:00
Search period end: 26 February 2026 00:00
Orbit: 865 x 976 km, 66.8° (Epoch: 16 February)

Date Brightness Start Highest point End Pass type
(mag) Time Alt. Az. Time Alt. Az. Time Alt. Az.
16 Feb - 03:00:41 10° ESE 03:01:58 11° E 03:03:16 10° E visible
16 Feb - 04:41:14 10° SSW 04:46:57 56° ESE 04:52:51 10° NE visible
16 Feb - 06:27:57 10° WSW 06:33:31 41° NW 06:39:17 10° NNE visible
16 Feb - 08:17:05 10° WNW 08:21:31 21° NNW 08:26:03 10° NE daylight
16 Feb - 10:05:27 10° NW 10:10:06 22° NNE 10:14:50 10° ENE daylight
16 Feb - 11:52:00 10° NNW 11:57:57 46° NE 12:04:02 10° ESE daylight
16 Feb - 13:38:26 10° NW 13:44:26 51° WSW 13:50:32 10° SSE daylight
17 Feb - 03:06:52 10° SE 03:10:20 16° ESE 03:13:50 10° ENE visible
17 Feb - 04:49:46 10° SSW 04:55:38 77° SE 05:01:42 10° NE visible
17 Feb - 06:37:10 10° W 06:42:32 34° NNW 06:48:03 10° NNE visible
17 Feb - 08:26:27 10° NW 08:30:45 20° N 08:35:09 10° NE daylight
17 Feb - 10:14:21 10° NNW 10:19:16 24° NNE 10:24:18 10° ENE daylight
17 Feb - 12:00:45 10° NW 12:06:53 59° NE 12:13:08 10° SE daylight
17 Feb - 13:47:22 10° NW 13:53:02 38° WSW 13:58:47 10° S daylight
18 Feb - 03:14:15 10° SSE 03:18:44 23° ESE 03:23:19 10° ENE visible
18 Feb - 04:58:29 10° SW 05:04:23 81° NW 05:10:30 10° NE visible
18 Feb - 06:46:31 10° W 06:51:37 28° NNW 06:56:52 10° NNE visible
18 Feb - 08:35:45 10° NW 08:40:01 19° N 08:44:21 10° NE daylight
18 Feb - 10:23:12 10° NNW 10:28:25 28° NNE 10:33:45 10° E daylight
18 Feb - 12:09:29 10° NW 12:15:44 76° NE 12:22:05 10° SE daylight
18 Feb - 13:56:26 10° NW 14:01:35 28° WSW 14:06:47 10° SSW daylight
19 Feb - 03:22:06 10° S 03:27:14 32° ESE 03:32:29 10° NE visible
19 Feb - 05:07:22 10° SW 05:13:13 63° NW 05:19:17 10° NE visible
19 Feb - 06:55:54 10° WNW 07:00:45 25° NNW 07:05:43 10° NNE visible
19 Feb - 08:44:55 10° NW 08:49:15 20° N 08:53:40 10° NE daylight
19 Feb - 10:31:59 10° NNW 10:37:31 33° NNE 10:43:08 10° E daylight
19 Feb - 12:18:16 10° NW 12:24:31 84° SW 12:30:53 10° SSE daylight
19 Feb - 14:05:43 10° WNW 14:10:04 20° WSW 14:14:27 10° SSW daylight
20 Feb - 03:30:15 10° S 03:35:47 44° ESE 03:41:29 10° NE visible
20 Feb - 05:16:23 10° WSW 05:22:07 49° NW 05:28:03 10° NNE visible
20 Feb - 07:05:19 10° WNW 07:09:56 22° NNW 07:14:38 10° NE daylight
20 Feb - 08:54:00 10° NW 08:58:30 21° N 09:03:04 10° ENE daylight
20 Feb - 10:40:44 10° NNW 10:46:32 40° NE 10:52:27 10° ESE daylight
20 Feb - 12:27:05 10° NW 12:33:14 64° WSW 12:39:31 10° SSE daylight
20 Feb - 14:15:28 10° WNW 14:18:28 14° WSW 14:21:29 10° SW daylight
21 Feb - 01:57:14 10° ESE 01:59:21 12° E 02:01:30 10° E visible
21 Feb - 03:38:38 10° SSW 03:44:25 61° ESE 03:50:23 10° NE visible
21 Feb - 05:25:32 10° WSW 05:31:05 39° NW 05:36:48 10° NNE visible
21 Feb - 07:14:43 10° WNW 07:19:08 20° N 07:23:39 10° NE daylight
21 Feb - 09:02:58 10° NW 09:07:42 22° NNE 09:12:31 10° ENE daylight
21 Feb - 10:49:29 10° NNW 10:55:30 49° NE 11:01:39 10° ESE daylight
21 Feb - 12:35:58 10° NW 12:41:54 47° WSW 12:47:57 10° S daylight
22 Feb - 02:03:56 10° SE 02:07:43 18° ESE 02:11:34 10° ENE visible
22 Feb - 03:47:13 10° SSW 03:53:07 82° SE 03:59:13 10° NE visible
22 Feb - 05:34:47 10° W 05:40:07 32° NNW 05:45:35 10° NNE visible
22 Feb - 07:24:04 10° NW 07:28:22 19° N 07:32:45 10° NE daylight
22 Feb - 09:11:52 10° NNW 09:16:52 25° NNE 09:21:59 10° ENE daylight
22 Feb - 10:58:14 10° NW 11:04:25 63° NE 11:10:43 10° SE daylight
22 Feb - 12:44:56 10° NW 12:50:30 35° WSW 12:56:09 10° S daylight
23 Feb - 02:11:29 10° SSE 02:16:09 25° ESE 02:20:56 10° NE visible
23 Feb - 03:55:58 10° SW 04:01:53 76° NW 04:08:01 10° NE visible
23 Feb - 05:44:08 10° W 05:49:11 27° NNW 05:54:24 10° NNE visible
23 Feb - 07:33:20 10° NW 07:37:37 19° N 07:41:59 10° NE daylight
23 Feb - 09:20:41 10° NNW 09:26:00 29° NNE 09:31:26 10° E daylight
23 Feb - 11:06:59 10° NW 11:13:15 80° NE 11:19:38 10° SE daylight
23 Feb - 12:54:02 10° NW 12:59:01 26° WSW 13:04:04 10° SSW daylight
24 Feb - 02:19:24 10° S 02:24:40 35° ESE 02:30:04 10° NE visible
24 Feb - 04:04:53 10° SW 04:10:43 59° NW 04:16:47 10° NE visible
24 Feb - 05:53:32 10° WNW 05:58:20 24° NNW 06:03:16 10° NNE visible
24 Feb - 07:42:29 10° NW 07:46:52 20° N 07:51:20 10° NE daylight
24 Feb - 09:29:28 10° NNW 09:35:05 34° NNE 09:40:48 10° E daylight
24 Feb - 11:15:46 10° NW 11:22:02 79° SW 11:28:23 10° SSE daylight
24 Feb - 13:03:23 10° WNW 13:07:29 18° WSW 13:11:36 10° SW daylight
25 Feb - 02:27:37 10° S 02:33:14 48° ESE 02:39:02 10° NE visible
25 Feb - 04:13:57 10° WSW 04:19:39 46° NW 04:25:33 10° NNE visible
25 Feb - 06:02:57 10° WNW 06:07:32 22° NNW 06:12:12 10° NE visible
25 Feb - 07:51:32 10° NW 07:56:06 21° NNE 08:00:45 10° ENE daylight
25 Feb - 09:38:13 10° NNW 09:44:06 42° NE 09:50:05 10° ESE daylight
25 Feb - 11:24:35 10° NW 11:30:44 60° WSW 11:36:58 10° SSE daylight
25 Feb - 13:13:22 10° WNW 13:15:52 13° W 13:18:23 10° SW daylight
